Temperature
15 15 15 15 15 15 15 15 16 16 16 16 17 17 17 17 17 17 17 17 18 18 18 18 18 18 18 18 18 18 18 18 18 18 18 18 18 18 18 17 17 17 17
15 15 15 15 15 15 15 15 15 16 16 16 16 16 17 17 17 17 17 17 17 18 18 18 18 18 18 18 18 18 18 18 18 18 18 18 18 18 18 17 17 17 17
14 14 14 14 14 15 15 15 15 15 15 16 16 16 16 17 17 17 17 17 17 18 18 18 18 18 18 18 18 18 18 18 18 18 18 18 18 18 17 17 17 17 17
14 14 14 14 14 14 14 15 15 15 15 15 16 16 16 16 17 17 17 17 17 17 17 18 18 18 18 18 18 18 18 18 18 18 18 18 18 18 17 17 17 17 17
13 13 14 14 14 14 14 14 14 15 15 15 15 16 16 16 16 17 17 17 17 17 17 17 18 18 18 18 18 18 18 18 18 18 18 18 18 17 17 17 17 17 17
13 13 13 13 14 14 14 14 14 14 14 15 15 16 16 16 16 16 17 17 17 17 17 17 17 18 18 18 18 18 18 18 18 18 18 18 17 17 17 17 17 17 17
13 13 13 13 13 13 13 13 14 14 14 15 15 15 16 16 16 16 17 17 17 17 17 17 17 18 18 18 18 18 18 18 18 18 18 17 17 17 17 17 17 17 17
13 13 13 13 13 13 13 13 13 14 14 14 14 15 15 16 16 16 17 17 17 17 17 17 17 17 17 18 18 18 18 18 18 18 18 17 17 17 17 17 17 17 17
13 13 13 13 13 13 13 13 13 14 14 14 14 14 15 15 16 16 16 17 17 17 17 17 17 17 17 17 18 18 18 18 18 18 18 17 17 17 17 17 17 17 17
13 13 13 13 13 13 13 13 13 13 13 14 14 14 15 15 15 16 16 16 16 17 17 17 17 17 17 17 17 18 18 18 17 17 17 17 17 17 17 17 17 17 17
13 13 13 13 13 13 13 13 13 13 13 13 14 14 14 14 15 15 15 16 16 16 16 17 17 17 17 17 17 17 17 17 17 17 17 17 17 17 17 17 17 17 17
13 13 13 13 13 13 13 13 13 13 13 13 13 14 14 14 14 15 15 15 16 16 16 16 16 16 17 17 17 17 17 17 17 17 17 17 17 17 17 17 17 17 17
13 13 13 13 13 13 13 13 13 13 13 13 13 13 13 14 14 14 14 15 15 15 16 16 16 16 16 16 16 16 17 17 17 17 17 17 17 17 17 17 17 17 17
13 13 13 13 13 13 13 13 13 13 13 13 13 13 13 13 14 14 14 14 14 15 15 16 16 16 16 16 16 16 16 16 16 17 17 17 17 17 17 17 17 17 17
14 13 13 13 13 13 13 13 13 13 13 13 13 13 13 13 13 13 14 14 14 14 15 15 15 15 15 16 16 16 16 16 16 16 17 17 17 17 17 17 17 17 17
14 14 13 13 13 13 13 13 13 13 13 13 13 13 13 13 13 13 13 13 14 14 14 14 15 15 15 15 15 15 15 16 16 16 16 16 16 17 17 17 17 17 17
14 14 14 14 13 13 13 13 13 13 13 13 13 13 13 13 13 13 13 13 13 13 14 14 14 14 15 15 15 15 15 15 16 16 16 16 16 16 16 16 17 17 16
14 14 14 14 14 13 13 13 13 13 13 13 13 13 13 13 13 13 13 13 13 13 13 14 14 14 14 14 14 15 15 15 15 15 15 16 16 16 16 16 16 16 16
14 14 14 14 14 13 13 13 13 13 13 13 13 13 13 13 12 12 13 13 13 13 13 13 13 14 14 14 14 14 14 14 15 15 15 15 15 16 16 16 16 16 16
14 14 14 14 14 13 13 13 13 13 13 13 13 13 13 13 13 12 12 12 13 13 13 13 13 13 13 13 13 14 14 14 14 14 15 15 15 15 15 15 16 16 16
14 14 14 14 13 13 13 13 13 13 13 13 13 13 13 13 13 13 13 13 13 13 13 13 13 13 13 13 13 13 13 14 14 14 14 14 14 15 15 15 15 15 16
14 14 14 13 13 13 13 13 13 13 13 13 13 13 13 13 13 13 13 13 13 13 12 12 12 12 13 13 13 13 13 13 13 14 14 14 14 14 14 15 15 15 15
14 14 13 13 13 13 13 13 13 13 13 13 13 13 13 13 13 13 13 13 13 12 12 12 12 12 12 12 12 13 13 13 13 13 13 14 14 14 14 14 14 15 15
14 13 13 13 13 13 13 13 13 13 13 13 13 13 13 12 13 13 12 12 12 12 12 12 12 12 12 12 12 12 12 12 13 13 13 13 13 13 14 14 14 14 14
14 13 13 13 13 13 13 13 13 13 13 13 12 12 12 12 12 12 12 12 12 12 12 12 12 12 12 12 12 12 12 12 12 13 13 13 13 13 13 13 14 14 14
14 13 13 13 12 12 12 12 12 12 12 12 12 12 12 12 12 12 12 12 12 12 12 12 12 12 12 12 12 12 12 12 12 12 12 12 12 12 12 13 13 13 13
Wind_Speed
3 3 3 1 1 1 1 2 3 4 4 4 5 6 5 4 4 4 5 10 10 9 8 8 8 8 9 9 9 8 9 10 10 10 10 10 10 10 11 11 11 11 11
2 3 4 3 2 2 2 2 3 3 3 3 5 5 5 4 4 4 5 9 10 11 10 10 9 9 9 9 9 9 10 11 11 11 11 11 11 11 11 11 11 11 11
3 3 4 4 3 4 3 2 3 2 2 3 5 5 4 3 4 4 4 7 9 11 12 12 11 11 10 11 10 10 11 13 13 12 12 12 12 12 11 12 11 11 10
7 3 3 4 3 3 2 3 2 2 2 2 3 4 3 3 5 5 4 6 7 8 12 14 12 12 11 12 11 12 12 13 14 13 13 13 12 12 12 12 12 11 10
9 4 3 3 4 3 2 4 2 2 2 3 3 4 3 3 4 5 5 5 5 7 9 14 14 13 12 12 12 12 13 14 14 14 14 14 13 13 13 13 12 12 11
6 5 4 3 3 3 3 3 3 3 2 2 4 3 2 3 3 4 5 3 3 6 8 11 11 11 13 13 13 13 14 15 15 15 14 15 14 14 14 13 13 12 11
5 4 4 4 3 3 3 3 2 3 2 2 2 3 3 3 3 4 3 2 2 3 5 8 9 10 10 14 14 13 14 15 15 15 15 15 15 15 15 14 13 13 12
4 5 4 4 3 2 2 3 2 1 2 2 1 1 1 1 2 4 3 3 3 2 3 6 7 8 9 11 12 15 15 15 16 16 15 15 16 16 16 15 14 14 13
2 3 5 4 3 2 2 2 2 2 1 2 2 1 0 1 2 2 3 2 3 2 3 3 4 7 9 10 12 15 16 16 16 16 16 16 16 17 17 16 16 15 14
1 2 3 4 4 3 3 3 3 2 1 2 2 2 1 1 1 2 2 1 2 3 3 3 3 4 6 7 11 15 17 16 16 16 16 17 17 17 18 18 17 16 16
1 1 2 3 3 3 3 3 3 2 1 1 1 2 2 2 2 0 1 2 2 2 2 2 1 1 3 6 8 13 17 17 16 16 16 16 17 18 18 19 18 18 17
1 2 2 2 3 3 3 3 3 3 2 1 1 1 1 1 2 1 1 2 2 2 1 1 1 2 2 4 6 11 16 16 16 16 15 16 16 18 19 19 19 19 19
2 3 3 2 2 3 3 3 3 2 2 1 1 1 1 1 1 1 1 2 2 2 1 1 2 2 2 3 5 9 12 15 15 15 15 15 16 18 19 19 19 19 20
2 2 2 2 1 1 2 2 3 2 2 3 3 2 1 1 1 1 1 1 2 2 1 2 0 1 1 3 5 8 9 13 14 14 15 15 15 16 17 19 19 19 20
1 2 2 2 0 0 1 2 2 2 2 2 2 3 2 1 1 1 1 0 0 1 2 1 1 0 0 2 5 6 7 11 13 14 15 15 15 15 16 17 17 18 19
2 2 3 2 1 1 1 1 2 2 2 2 1 2 2 1 1 1 1 1 1 1 2 1 1 1 1 1 4 5 6 10 13 15 15 16 15 15 16 16 17 17 18
2 2 2 2 1 2 1 1 1 2 2 2 2 1 2 1 1 1 2 1 1 1 2 3 2 1 1 1 1 2 3 6 9 14 15 16 16 16 16 16 17 17 18
3 3 2 1 1 1 1 1 1 2 2 2 2 2 2 1 1 1 1 2 2 2 1 2 2 2 2 1 1 2 3 4 5 11 15 16 16 16 17 17 17 17 18
2 3 2 1 1 0 1 1 2 2 2 1 1 1 1 1 1 1 1 1 2 2 1 1 2 2 2 2 2 2 3 3 5 7 12 15 16 16 16 17 17 17 18
2 3 2 1 0 0 1 2 2 2 2 2 1 1 0 1 1 2 1 2 2 2 2 2 2 2 2 2 1 2 3 2 3 4 5 8 12 16 17 17 18 18 19
3 2 2 2 2 1 2 3 3 4 3 3 2 1 1 3 2 1 1 2 3 2 2 2 2 2 2 1 2 2 3 3 4 3 2 3 4 5 9 14 17 18 19
2 2 3 2 2 2 3 3 3 4 5 4 2 2 1 3 3 2 2 3 3 2 2 2 2 2 3 2 2 2 2 2 3 2 2 4 3 5 5 7 13 17 19
3 2 2 2 1 2 3 3 4 4 5 4 3 2 2 2 3 0 2 4 4 5 5 3 2 4 3 2 2 3 3 3 4 3 2 4 3 5 5 8 12 16 18
1 1 1 1 1 2 2 3 4 4 5 4 2 2 1 3 3 3 2 2 2 2 3 3 2 3 2 2 2 3 3 4 4 4 3 3 3 4 4 4 11 14 16
1 1 1 1 0 2 2 3 3 4 3 2 1 2 3 4 5 5 3 4 4 4 3 2 3 4 5 5 3 2 3 2 3 3 2 2 3 3 3 4 6 10 12
3 2 1 1 1 3 4 4 4 2 3 2 2 3 6 5 6 6 3 3 4 4 5 4 4 4 3 3 4 2 2 2 2 3 2 1 2 2 3 3 2 3 5
Wind_Direction
331 331 317 322 289 288 253 225 236 232 232 239 233 229 228 221 237 241 165 169 174 181 191 193 189 188 184 184 183 183 178 171 171 171 162 156 151 147 143 141 139 137 133
333 336 332 337 332 318 287 273 266 237 233 243 250 250 230 222 231 233 194 187 188 188 192 196 193 193 190 187 187 187 182 175 174 174 168 162 157 154 151 149 146 144 142
345 357 352 342 336 330 328 313 312 297 260 247 247 251 238 222 236 236 216 195 195 197 196 197 197 196 195 192 192 191 186 179 176 175 172 168 164 160 159 156 154 151 147
1 2 356 338 327 336 335 314 308 313 298 282 268 253 235 209 234 234 225 210 195 195 198 198 195 196 197 195 196 195 186 181 179 178 176 173 169 167 166 164 160 157 153
357 356 339 326 340 330 335 320 343 325 304 296 271 248 234 218 231 238 233 219 201 190 189 196 195 195 198 197 197 196 188 182 181 182 181 178 175 173 171 171 167 164 162
354 347 329 348 345 340 345 332 339 327 312 295 287 275 237 222 223 233 238 218 213 205 188 185 185 194 199 196 196 196 191 186 185 186 187 183 180 180 176 174 173 172 170
360 339 345 341 345 339 335 331 331 325 323 315 315 305 273 229 213 226 226 208 229 226 188 181 184 181 188 196 195 194 192 191 189 189 189 187 185 184 182 180 180 180 180
6 348 342 329 332 319 338 338 342 347 328 337 328 332 325 317 267 226 208 203 221 214 201 197 187 183 181 181 193 195 195 195 194 192 190 189 188 187 188 188 189 189 188
29 350 330 329 328 342 1 335 4 13 338 325 341 27 27 311 300 275 230 209 198 194 204 214 205 187 182 178 183 191 194 195 197 196 194 194 194 193 193 195 195 195 195
45 11 348 338 341 355 3 351 30 351 349 333 332 338 341 14 308 310 316 291 226 201 203 214 216 201 187 175 179 187 191 193 198 201 200 201 200 198 198 199 201 200 200
37 47 5 341 347 357 4 1 6 3 1 345 337 333 342 339 294 300 312 320 312 248 200 199 201 224 185 167 169 180 188 193 201 203 206 206 206 205 204 203 204 205 205
43 50 24 350 357 10 6 0 351 348 351 340 339 341 355 348 340 356 323 308 296 285 264 191 190 219 203 166 170 177 186 192 200 205 209 210 210 210 210 209 209 210 209
42 37 20 351 6 14 359 355 332 325 330 335 332 328 336 332 341 342 334 320 314 299 302 249 198 190 193 159 158 172 188 194 202 207 211 215 216 215 214 214 214 215 214
44 35 359 322 2 15 356 350 327 333 357 354 349 347 331 319 340 340 338 346 326 309 306 288 289 162 149 138 155 174 195 200 205 212 214 218 219 219 219 217 218 219 219
10 13 323 303 303 106 359 356 338 347 353 344 341 339 339 325 349 320 339 195 191 305 298 305 356 297 174 156 172 194 200 203 207 216 218 218 219 219 220 220 220 222 222
348 314 313 320 13 45 101 63 328 330 336 317 267 280 320 342 350 328 325 296 242 227 267 283 302 272 258 234 196 209 210 203 211 217 219 218 219 220 221 221 222 222 222
272 276 294 314 4 18 36 85 313 320 320 322 327 335 332 316 347 335 338 318 281 254 260 290 307 322 273 272 224 245 242 217 217 220 218 218 218 219 220 222 222 223 223
252 264 266 287 354 19 358 358 315 324 324 329 326 328 310 326 3 303 305 302 287 262 242 280 303 315 315 299 253 249 258 243 229 224 219 219 219 219 221 222 223 224 224
257 259 258 258 264 288 324 319 304 292 285 286 309 327 328 352 333 312 299 307 304 303 283 280 282 285 290 290 293 281 274 263 256 235 220 221 221 223 224 225 226 226 226
297 296 303 298 279 301 2 338 337 330 314 297 287 270 235 36 18 2 353 350 341 336 323 297 285 289 285 284 283 278 286 273 264 257 238 227 224 226 227 228 228 228 229
286 301 322 329 341 0 31 21 347 329 319 310 309 293 153 147 128 106 16 353 353 342 321 304 298 306 294 299 276 261 274 283 271 249 243 242 223 223 227 231 232 232 230
293 321 322 321 335 20 52 33 358 327 318 314 314 313 194 172 171 190 234 256 257 277 294 300 303 303 294 286 284 275 272 287 282 273 252 262 238 236 232 225 226 227 228
242 255 291 319 16 65 55 24 350 313 296 301 314 324 349 55 94 68 262 265 265 259 248 249 274 287 296 305 316 310 297 277 264 263 276 272 257 249 245 243 234 228 226
216 184 278 319 26 58 37 3 335 297 282 284 295 323 20 57 43 24 351 329 307 291 257 245 246 276 296 317 308 285 278 279 279 270 232 253 265 266 266 250 246 238 231
215 205 227 247 125 70 41 13 345 292 282 283 359 41 46 66 43 37 20 350 344 337 324 290 273 281 292 293 288 305 300 283 285 280 248 233 264 280 279 267 255 242 237
190 207 204 195 112 93 77 48 16 323 328 347 42 69 64 67 50 42 24 4 350 335 336 339 324 311 304 305 299 264 278 285 289 288 284 281 288 318 299 278 260 253 246
Height
1502 1502 1501 1501 1500 1500 1500 1500 1500 1500 1501 1501 1502 1504 1506 1507 1509 1511 1513 1514 1515 1516 1518 1519 1521 1522 1524 1526 1528 1530 1532 1534 1536 1538 1540 1542 1544 1545 1547 1549 1550 1551 1553
1501 1500 1500 1499 1499 1499 1499 1499 1499 1499 1499 1499 1500 1502 1504 1505 1506 1508 1510 1512 1513 1514 1515 1517 1519 1521 1522 1524 1527 1529 1531 1533 1535 1537 1539 1541 1543 1545 1547 1549 1550 1552 1553
1500 1499 1498 1498 1497 1497 1497 1497 1497 1497 1497 1498 1498 1500 1501 1502 1504 1506 1508 1509 1511 1512 1514 1515 1517 1519 1521 1523 1525 1527 1530 1532 1534 1537 1539 1541 1543 1545 1547 1549 1550 1552 1553
1499 1498 1497 1497 1496 1496 1496 1496 1496 1496 1496 1496 1496 1497 1499 1500 1502 1504 1505 1507 1508 1509 1511 1513 1515 1517 1519 1521 1524 1526 1528 1531 1533 1535 1538 1540 1542 1544 1546 1548 1550 1552 1553
1498 1497 1496 1495 1495 1494 1494 1494 1494 1494 1494 1494 1495 1496 1497 1498 1500 1501 1503 1504 1506 1507 1509 1511 1513 1515 1517 1519 1522 1524 1527 1529 1531 1534 1536 1539 1541 1543 1546 1548 1549 1551 1553
1497 1496 1495 1494 1493 1493 1493 1493 1492 1492 1493 1493 1493 1494 1495 1496 1497 1499 1500 1502 1503 1505 1507 1508 1511 1513 1515 1517 1520 1522 1525 1527 1530 1532 1535 1537 1540 1542 1545 1547 1549 1550 1552
1496 1495 1494 1493 1492 1492 1492 1492 1491 1491 1492 1492 1492 1493 1493 1494 1495 1496 1498 1499 1501 1502 1504 1506 1508 1510 1512 1515 1518 1520 1523 1525 1528 1530 1533 1535 1538 1540 1543 1545 1547 1549 1551
1495 1494 1493 1492 1492 1492 1491 1491 1491 1490 1491 1491 1492 1492 1492 1494 1493 1494 1496 1497 1499 1500 1502 1504 1506 1508 1510 1513 1515 1518 1520 1523 1525 1528 1531 1533 1536 1538 1541 1543 1546 1548 1549
1495 1493 1492 1492 1492 1491 1491 1491 1490 1490 1490 1491 1492 1492 1493 1492 1493 1494 1495 1496 1497 1498 1500 1502 1504 1506 1508 1510 1513 1515 1518 1520 1523 1526 1528 1531 1534 1536 1538 1541 1543 1546 1548
1495 1493 1492 1491 1491 1491 1490 1490 1490 1490 1490 1490 1491 1492 1493 1493 1494 1493 1494 1495 1496 1497 1498 1500 1502 1503 1506 1508 1510 1513 1515 1518 1520 1523 1525 1528 1531 1533 1536 1538 1541 1543 1545
1495 1494 1492 1491 1491 1490 1490 1490 1489 1489 1490 1490 1491 1491 1492 1492 1493 1493 1493 1494 1495 1496 1497 1498 1500 1501 1503 1505 1507 1510 1512 1515 1517 1520 1523 1525 1528 1530 1533 1535 1538 1540 1542
1495 1494 1493 1491 1491 1490 1489 1489 1489 1489 1489 1489 1490 1491 1491 1492 1492 1493 1493 1493 1494 1494 1495 1496 1498 1499 1501 1503 1505 1507 1510 1512 1514 1517 1520 1522 1525 1527 1530 1532 1535 1537 1539
1495 1494 1492 1491 1490 1490 1489 1489 1489 1489 1489 1489 1489 1490 1490 1491 1491 1492 1492 1492 1492 1493 1494 1495 1496 1497 1499 1501 1502 1504 1507 1509 1511 1514 1516 1519 1522 1524 1527 1529 1531 1533 1535
1495 1493 1492 1492 1491 1490 1489 1489 1488 1488 1488 1488 1488 1489 1489 1490 1490 1491 1492 1492 1492 1492 1492 1493 1494 1495 1497 1498 1500 1502 1504 1506 1508 1510 1513 1515 1518 1520 1523 1525 1527 1530 1532
1494 1493 1493 1492 1491 1490 1489 1489 1488 1488 1488 1488 1488 1488 1488 1489 1489 1490 1490 1491 1492 1491 1492 1492 1493 1494 1495 1496 1497 1499 1501 1502 1504 1506 1509 1511 1513 1516 1518 1521 1523 1525 1527
1494 1493 1493 1492 1491 1490 1489 1488 1488 1488 1487 1487 1487 1487 1487 1487 1488 1488 1489 1489 1490 1491 1491 1491 1491 1492 1493 1494 1495 1496 1498 1499 1501 1503 1505 1507 1509 1511 1513 1516 1518 1520 1522
1493 1493 1492 1492 1491 1490 1489 1488 1488 1487 1487 1486 1486 1486 1486 1486 1486 1487 1487 1487 1488 1489 1489 1489 1490 1490 1491 1491 1492 1493 1495 1496 1497 1499 1500 1502 1504 1506 1508 1511 1513 1515 1517
1492 1492 1492 1491 1490 1490 1489 1488 1487 1487 1486 1486 1486 1485 1485 1485 1485 1485 1486 1486 1486 1487 1487 1487 1488 1488 1489 1489 1490 1491 1491 1492 1493 1495 1496 1498 1499 1501 1503 1505 1507 1509 1512
1491 1491 1491 1490 1489 1489 1488 1487 1487 1486 1486 1485 1485 1484 1484 1484 1484 1484 1484 1484 1484 1485 1485 1485 1485 1486 1486 1487 1487 1488 1488 1489 1490 1491 1492 1493 1495 1496 1498 1500 1502 1504 1506
1490 1490 1489 1489 1488 1488 1487 1486 1486 1485 1485 1485 1484 1483 1483 1483 1483 1483 1483 1483 1483 1483 1483 1483 1483 1484 1484 1484 1485 1485 1485 1485 1486 1487 1488 1489 1490 1491 1493 1494 1496 1498 1499
1488 1488 1487 1487 1487 1486 1485 1485 1484 1484 1484 1483 1483 1483 1482 1482 1482 1481 1481 1481 1481 1481 1481 1481 1481 1482 1482 1482 1482 1482 1482 1482 1482 1483 1484 1485 1486 1486 1487 1489 1490 1491 1493
1485 1485 1485 1485 1484 1484 1484 1483 1483 1482 1482 1482 1482 1482 1481 1481 1480 1480 1480 1480 1480 1480 1480 1480 1479 1479 1479 1480 1479 1479 1479 1479 1479 1480 1480 1480 1481 1481 1482 1483 1484 1486 1487
1483 1483 1483 1482 1482 1481 1481 1481 1480 1480 1480 1480 1480 1480 1480 1480 1479 1479 1479 1478 1478 1478 1478 1478 1477 1477 1477 1477 1476 1476 1476 1476 1476 1476 1477 1476 1476 1477 1477 1478 1479 1480 1481
1480 1480 1480 1480 1479 1479 1478 1478 1478 1478 1478 1478 1478 1478 1478 1478 1477 1477 1477 1477 1477 1477 1476 1476 1476 1475 1475 1474 1474 1473 1473 1473 1473 1473 1473 1472 1472 1472 1473 1473 1474 1474 1475
1478 1478 1477 1477 1477 1476 1476 1476 1475 1475 1475 1476 1476 1476 1476 1476 1476 1476 1475 1475 1475 1475 1474 1474 1474 1473 1473 1472 1471 1470 1470 1469 1469 1469 1470 1469 1468 1468 1468 1468 1469 1469 1470
1475 1475 1475 1475 1475 1474 1474 1473 1473 1473 1473 1474 1474 1474 1474 1474 1474 1473 1473 1473 1472 1472 1472 1471 1471 1471 1470 1469 1469 1468 1467 1466 1466 1465 1466 1466 1465 1465 1464 1463 1464 1464 1464